Precipitable_Water
1.47 1.40 1.37 1.42 1.47 1.44 1.41 1.45 1.50 1.63 1.80 1.84 1.94 1.99 2.05 2.11 2.10 2.02 1.99 1.82 1.78 1.86 1.73 1.45 1.50 1.60 1.60 1.75 1.73 1.87 1.83 1.73 1.55 1.55 1.70 1.77 1.69 1.66 1.71 1.80 1.82 1.80 1.92
1.52 1.55 1.51 1.47 1.48 1.49 1.49 1.44 1.40 1.47 1.67 1.73 1.82 1.89 1.94 1.96 1.99 1.96 1.90 1.84 1.85 1.84 1.82 1.59 1.53 1.63 1.72 1.83 1.82 1.83 1.80 1.72 1.63 1.35 1.48 1.48 1.59 1.72 1.77 1.76 1.75 1.91 1.79
1.56 1.54 1.57 1.55 1.52 1.52 1.52 1.57 1.53 1.43 1.50 1.61 1.65 1.74 1.89 1.93 1.93 1.90 1.85 1.83 1.85 1.81 1.85 1.58 1.67 1.77 1.78 1.79 1.77 1.78 1.77 1.71 1.64 1.47 1.47 1.60 1.69 1.74 1.69 1.71 1.73 1.76 1.77
1.56 1.60 1.57 1.60 1.60 1.58 1.62 1.64 1.59 1.54 1.40 1.43 1.51 1.60 1.68 1.79 1.84 1.86 1.88 1.84 1.83 1.81 1.81 1.69 1.64 1.70 1.72 1.79 1.82 1.76 1.78 1.67 1.57 1.53 1.52 1.54 1.57 1.68 1.70 1.52 1.42 1.58 1.48
1.91 1.53 1.52 1.63 1.67 1.63 1.68 1.68 1.67 1.67 1.50 1.43 1.41 1.44 1.53 1.64 1.72 1.75 1.83 1.78 1.77 1.79 1.77 1.72 1.60 1.64 1.72 1.79 1.74 1.69 1.66 1.60 1.55 1.55 1.59 1.66 1.64 1.61 1.54 1.60 1.50 1.44 1.42
1.78 1.92 1.65 1.72 1.72 1.69 1.69 1.67 1.70 1.75 1.72 1.57 1.49 1.47 1.39 1.42 1.60 1.66 1.73 1.74 1.78 1.79 1.73 1.75 1.79 1.68 1.60 1.55 1.57 1.75 1.68 1.59 1.67 1.67 1.60 1.48 1.46 1.48 1.57 1.53 1.48 1.32 1.10
1.82 2.10 1.84 1.83 1.79 1.78 1.80 1.76 1.69 1.69 1.78 1.67 1.56 1.53 1.44 1.43 1.46 1.54 1.63 1.65 1.64 1.67 1.70 1.72 1.71 1.72 1.64 1.57 1.66 1.67 1.72 1.79 1.82 1.70 1.50 1.46 1.47 1.57 1.59 1.54 1.47 1.33 1.18
1.74 2.13 1.97 1.90 1.83 1.82 1.81 1.76 1.72 1.75 1.79 1.76 1.73 1.66 1.57 1.49 1.49 1.47 1.55 1.61 1.61 1.63 1.66 1.67 1.66 1.65 1.65 1.62 1.66 1.69 1.74 1.78 1.72 1.66 1.61 1.71 1.77 1.77 1.70 1.61 1.52 1.27 1.35
1.97 2.08 1.96 1.96 1.86 1.82 1.81 1.83 1.80 1.79 1.77 1.84 1.90 1.84 1.72 1.64 1.56 1.53 1.51 1.50 1.50 1.49 1.54 1.58 1.58 1.55 1.57 1.58 1.53 1.46 1.51 1.54 1.69 1.74 1.86 1.87 1.83 1.76 1.67 1.55 1.32 1.30 1.23
2.11 2.13 2.16 2.10 2.01 1.93 1.96 1.97 1.88 1.86 1.80 1.86 1.88 1.96 1.93 1.82 1.78 1.59 1.48 1.41 1.38 1.40 1.44 1.47 1.51 1.47 1.47 1.49 1.42 1.40 1.32 1.37 1.54 1.68 1.76 1.75 1.76 1.66 1.55 1.48 1.45 1.20 1.04
1.70 1.97 2.15 2.13 2.13 2.01 2.04 2.03 2.02 1.92 1.89 1.89 1.94 2.03 2.05 2.05 2.06 2.03 2.06 1.83 1.65 1.61 1.54 1.50 1.48 1.44 1.49 1.51 1.52 1.50 1.44 1.58 1.63 1.69 1.71 1.64 1.58 1.38 1.35 1.39 1.34 1.09 0.94
1.44 1.47 1.75 1.79 1.99 2.07 1.99 1.99 1.96 1.91 1.87 1.83 1.87 1.89 1.81 1.74 1.80 1.59 1.89 1.92 1.84 1.64 1.61 1.76 1.74 1.66 1.61 1.60 1.60 1.69 1.78 1.75 1.75 1.75 1.65 1.50 1.33 1.14 1.13 1.22 1.15 1.10 1.16
1.47 1.47 1.55 1.62 1.73 1.85 1.91 1.81 1.78 1.81 1.82 1.80 1.78 1.76 1.73 1.66 1.55 1.35 1.35 1.61 1.71 1.53 1.45 1.54 1.67 1.73 1.73 1.71 1.74 1.76 1.78 1.74 1.68 1.61 1.53 1.42 1.27 1.19 1.16 1.21 1.09 1.12 1.15
1.32 1.38 1.40 1.51 1.57 1.64 1.57 1.66 1.64 1.64 1.67 1.71 1.64 1.55 1.50 1.58 1.47 1.37 1.46 1.60 1.47 1.36 1.49 1.64 1.69 1.68 1.75 1.77 1.75 1.71 1.73 1.75 1.69 1.54 1.37 1.34 1.30 1.16 1.10 1.17 0.96 0.95 0.97
1.23 1.29 1.35 1.42 1.45 1.49 1.58 1.57 1.48 1.53 1.48 1.41 1.43 1.39 1.38 1.38 1.54 1.64 1.58 1.52 1.51 1.53 1.52 1.54 1.45 1.46 1.54 1.69 1.80 1.78 1.74 1.65 1.53 1.48 1.30 1.18 1.10 1.08 1.09 1.00 0.90 0.94 0.92
1.06 1.11 1.21 1.29 1.31 1.37 1.35 1.39 1.67 1.69 1.64 1.51 1.50 1.49 1.47 1.43 1.42 1.46 1.36 1.36 1.42 1.44 1.40 1.32 1.28 1.33 1.41 1.54 1.63 1.62 1.60 1.49 1.39 1.19 1.20 1.24 1.12 1.01 0.98 0.89 0.90 0.92 0.91
0.98 1.00 1.07 1.14 1.18 1.22 1.26 1.27 1.28 1.52 1.60 1.57 1.53 1.53 1.52 1.47 1.44 1.42 1.47 1.50 1.47 1.43 1.31 1.25 1.25 1.32 1.38 1.46 1.47 1.44 1.36 1.36 1.35 1.20 1.16 1.20 1.13 0.96 0.84 0.81 0.84 0.88 0.90
0.96 0.94 0.95 1.02 1.12 1.17 1.18 1.19 1.22 1.20 1.19 1.33 1.50 1.53 1.56 1.55 1.49 1.50 1.56 1.53 1.41 1.42 1.35 1.28 1.25 1.30 1.37 1.42 1.44 1.39 1.36 1.37 1.32 1.18 1.15 1.16 0.99 0.78 0.74 0.77 0.83 0.84 0.88
0.99 0.97 0.96 0.99 1.02 1.09 1.15 1.17 1.21 1.20 1.14 1.12 1.17 1.29 1.42 1.45 1.46 1.45 1.50 1.40 1.32 1.32 1.35 1.32 1.33 1.38 1.39 1.43 1.49 1.47 1.38 1.32 1.31 1.15 1.13 1.10 0.93 0.81 0.75 0.83 0.84 0.87 0.89
1.11 1.09 1.02 0.98 0.94 0.99 1.06 1.12 1.15 1.15 1.12 1.12 1.13 1.19 1.21 1.17 1.11 1.12 1.21 1.27 1.26 1.26 1.30 1.31 1.38 1.39 1.35 1.40 1.48 1.42 1.36 1.33 1.24 1.18 1.17 1.06 0.97 0.89 0.77 0.82 0.86 0.86 0.88
1.17 1.16 1.14 1.09 0.99 0.89 0.92 0.96 1.01 1.06 1.09 1.10 1.07 1.07 1.06 1.02 0.99 1.08 1.10 1.09 1.12 1.23 1.27 1.21 1.29 1.32 1.35 1.35 1.43 1.40 1.37 1.32 1.20 1.19 1.16 1.13 1.02 0.85 0.88 0.90 0.90 0.90 0.92
1.26 1.20 1.16 1.13 1.16 1.11 0.99 0.91 0.92 0.97 0.99 0.98 0.97 0.98 0.98 0.98 1.00 0.98 1.00 1.07 1.18 1.24 1.31 1.33 1.32 1.28 1.25 1.27 1.32 1.34 1.34 1.28 1.23 1.16 1.13 1.10 1.02 1.03 1.05 1.04 0.99 0.94 0.94
1.23 1.17 1.17 1.14 1.14 1.12 1.08 1.07 1.00 0.96 0.91 0.93 0.92 0.85 0.84 0.84 0.87 0.92 0.96 1.02 1.08 1.11 1.22 1.34 1.36 1.29 1.24 1.27 1.33 1.31 1.28 1.19 1.21 1.18 1.10 1.07 1.05 1.10 1.10 1.06 1.02 0.95 0.90
1.26 1.20 1.19 1.18 1.15 1.12 1.12 1.08 0.99 1.01 0.97 0.98 0.95 0.96 0.93 0.90 0.90 0.97 1.02 1.05 1.08 1.14 1.17 1.23 1.29 1.30 1.24 1.26 1.26 1.26 1.24 1.22 1.24 1.22 1.16 1.07 1.08 1.12 1.15 1.11 1.06 0.95 0.93
1.32 1.27 1.21 1.19 1.18 1.17 1.18 1.17 1.08 1.07 1.00 0.99 0.98 0.94 0.91 1.00 0.96 0.99 1.08 1.14 1.14 1.13 1.20 1.25 1.30 1.34 1.31 1.31 1.27 1.28 1.34 1.30 1.28 1.26 1.24 1.18 1.12 1.11 1.18 1.18 1.12 1.06 1.01
1.33 1.29 1.26 1.26 1.21 1.23 1.23 1.23 1.26 1.21 1.16 1.14 1.25 1.18 1.16 1.15 1.06 1.06 1.14 1.09 1.07 1.16 1.21 1.21 1.29 1.30 1.33 1.39 1.35 1.32 1.32 1.31 1.26 1.22 1.23 1.21 1.12 1.14 1.19 1.18 1.14 1.13 1.07
Wind_Speed
15 15 15 16 16 17 17 17 16 16 17 17 15 14 14 17 19 20 20 19 18 17 15 15 14 13 12 12 12 11 10 10 9 10 9 10 11 12 12 12 13 14 16
16 15 15 15 15 16 16 16 17 16 15 16 17 15 14 15 17 19 20 19 18 18 17 16 15 15 14 13 13 13 12 11 11 11 11 11 12 13 14 14 14 15 16
17 17 17 16 16 16 15 15 16 16 15 15 16 17 16 14 16 18 18 18 18 18 18 17 16 15 15 15 14 14 13 12 12 12 12 13 13 13 14 15 16 17 18
20 20 19 19 18 17 16 15 15 16 15 14 15 16 17 17 17 17 17 18 18 17 17 18 18 17 16 15 14 14 14 14 14 14 14 15 16 16 17 18 19 20 23
26 23 23 21 20 19 18 17 16 16 16 15 14 15 16 16 17 17 17 18 18 18 17 17 17 17 17 16 16 16 16 16 16 15 16 17 17 18 19 20 22 24 25
28 33 28 24 22 21 20 20 19 18 17 16 16 15 15 16 17 17 18 18 18 19 19 18 18 18 18 18 18 18 17 17 17 17 18 19 20 21 21 22 24 25 25
35 37 33 28 25 22 21 20 20 20 19 17 17 16 16 16 17 18 18 18 19 19 20 19 19 20 19 19 19 19 19 19 20 19 20 21 22 22 23 24 25 27 28
42 41 36 32 29 25 23 22 21 20 21 19 18 17 17 17 18 18 19 19 19 20 20 20 21 20 19 19 19 19 19 19 20 21 23 23 23 25 26 26 26 27 27
49 40 36 33 30 28 26 24 23 22 22 21 20 19 18 18 18 19 19 19 20 21 21 21 21 22 22 21 21 21 22 23 23 23 23 23 25 26 26 26 26 24 24
25 27 29 30 30 28 27 26 24 23 23 24 23 23 22 21 20 21 20 19 19 19 20 22 23 23 23 23 24 24 24 24 23 23 24 25 26 27 27 26 25 24 22
15 16 21 23 25 26 25 24 25 24 23 24 23 23 22 21 20 22 22 20 18 18 19 21 22 23 24 24 25 26 26 24 24 23 24 26 27 28 27 26 23 21 21
15 21 13 14 14 18 22 22 23 24 23 24 24 24 23 23 24 19 9 15 14 16 19 20 21 23 25 25 27 28 28 26 24 24 24 26 26 25 23 21 20 20 19
16 17 19 17 17 16 19 21 23 25 24 25 26 26 26 25 28 28 22 18 16 17 19 19 21 23 24 27 29 28 28 27 26 25 26 26 24 23 21 19 18 17 17
22 22 21 21 22 22 21 21 22 21 23 23 24 27 28 27 24 22 22 22 22 21 22 23 25 26 28 29 30 30 29 28 27 27 26 25 24 22 20 18 16 16 15
28 30 29 28 26 26 25 25 25 26 26 26 26 26 27 25 25 25 25 24 23 23 23 24 24 24 26 29 29 29 30 28 27 27 27 26 24 21 19 17 16 15 15
28 29 31 33 33 32 30 30 31 30 30 30 30 30 30 30 29 27 26 25 25 25 25 25 23 22 20 18 16 19 22 23 23 24 24 25 23 20 17 16 15 15 15
29 29 29 31 31 32 33 33 34 36 36 34 33 33 31 31 30 31 30 30 28 26 26 25 24 22 20 19 18 19 19 21 21 20 17 15 16 17 17 17 16 15 15
30 32 31 31 31 31 33 33 34 33 33 34 34 34 33 32 30 33 33 31 29 30 29 28 26 24 23 23 22 22 22 21 20 18 17 16 17 17 17 17 17 16 16
30 30 32 33 33 33 32 32 32 32 31 31 30 30 28 29 30 29 31 32 32 32 30 30 29 28 28 27 26 25 23 22 21 19 19 19 18 18 19 19 18 18 17
26 28 29 31 33 34 33 33 32 31 31 31 31 31 31 30 29 29 30 31 31 31 31 29 28 28 29 29 27 26 25 23 23 22 21 20 20 20 20 19 19 19 18
25 26 27 28 30 32 34 35 35 34 34 33 33 32 32 31 32 31 30 31 31 30 30 30 30 29 29 30 30 29 27 26 25 24 23 22 21 21 21 21 21 20 19
21 23 25 28 29 29 31 32 35 36 36 36 35 34 34 34 34 33 32 32 32 31 32 32 31 30 30 29 30 31 30 29 27 26 25 24 23 22 21 21 21 21 20
20 20 21 22 25 27 28 28 30 33 35 36 35 34 34 34 35 34 34 33 32 32 32 32 32 31 31 30 30 29 30 29 29 28 27 26 25 24 23 22 21 21 21
17 18 19 20 20 23 26 26 27 29 30 30 32 33 32 33 33 33 33 33 33 33 33 33 33 32 31 31 30 30 30 30 29 28 28 27 27 26 25 23 22 21 20
13 14 15 17 19 20 22 23 24 25 24 24 25 26 26 27 29 30 30 31 32 33 34 34 34 34 33 33 32 32 31 31 31 30 29 29 29 28 27 26 24 23 23
10 12 14 16 16 17 18 20 21 23 24 24 22 23 24 25 26 28 30 32 33 33 33 33 34 34 34 33 35 34 33 33 33 33 32 31 31 30 29 28 27 26 25
Wind_Direction
218 217 217 218 220 222 223 224 225 227 229 232 234 237 234 225 224 224 227 232 238 242 245 244 245 247 253 263 265 264 270 275 277 287 286 288 291 296 298 299 296 291 288
220 221 221 221 221 222 225 226 224 225 226 229 229 230 229 226 226 224 228 232 236 239 243 243 246 250 255 260 263 260 263 269 276 281 285 289 290 296 298 297 297 295 296
225 224 224 224 223 225 224 227 226 222 222 224 225 225 227 226 227 227 229 231 236 241 240 244 246 250 255 261 262 259 259 268 273 276 282 286 290 293 295 296 296 295 296
233 232 229 227 226 226 226 226 227 228 224 222 223 225 228 231 230 230 231 232 236 238 241 244 247 251 254 255 257 258 262 267 271 276 282 285 287 290 292 293 295 295 295
243 235 232 230 228 226 228 228 227 229 228 226 226 228 229 230 231 231 232 233 235 237 241 244 245 247 249 251 256 259 261 264 269 275 282 287 289 292 293 295 296 299 299
256 239 234 229 226 225 225 228 229 231 231 230 231 233 232 234 234 234 234 236 238 241 243 244 245 246 249 252 254 257 259 262 267 275 282 285 289 290 292 295 297 300 299
257 236 230 228 226 225 225 225 228 230 233 233 234 236 238 239 239 238 238 240 241 242 244 246 248 250 251 253 254 257 259 262 269 275 281 285 289 290 293 295 298 300 299
255 229 225 224 225 224 224 226 228 231 232 233 234 237 240 243 242 242 243 244 245 246 246 248 249 251 252 253 255 258 261 267 272 278 281 285 289 292 293 294 298 302 302
226 217 220 221 223 224 226 228 229 231 234 236 238 240 242 245 244 244 243 244 246 248 250 251 252 252 251 251 254 259 265 270 275 277 280 285 290 292 293 293 296 300 304
183 205 215 220 220 221 225 228 231 234 237 239 240 242 244 245 246 244 242 244 248 251 253 253 253 254 252 253 256 259 264 269 271 275 281 287 291 293 291 290 291 295 297
226 210 230 216 221 222 226 230 234 237 240 242 244 243 243 245 247 252 240 237 247 254 260 259 255 253 254 257 260 261 263 267 271 274 280 288 293 295 291 288 286 288 292
261 231 265 245 248 234 229 232 236 237 240 242 241 242 244 253 261 304 270 240 255 264 268 265 258 256 258 260 262 263 262 264 269 274 281 287 292 295 291 285 285 287 289
249 251 253 251 252 254 246 242 240 240 241 244 246 249 251 259 274 277 265 266 269 270 273 269 265 264 264 265 265 263 261 263 266 272 279 283 286 290 288 283 285 287 291
253 255 256 254 254 254 251 249 250 250 249 249 249 253 258 267 266 269 268 268 271 275 275 272 272 272 272 270 269 261 259 263 265 271 277 279 280 282 280 276 278 283 289
256 254 252 252 258 254 252 251 253 254 252 252 254 257 259 263 263 266 266 268 270 271 273 273 275 275 279 280 264 255 255 261 265 270 273 272 272 275 271 267 272 277 283
254 254 253 253 255 256 255 256 254 256 256 255 255 258 262 264 265 264 265 267 267 267 270 272 272 275 278 281 265 252 252 258 265 270 275 269 259 262 258 260 267 273 281
256 257 256 255 256 255 256 257 258 255 257 255 256 257 261 264 261 261 262 264 265 262 264 267 269 269 269 264 261 260 259 263 266 269 269 260 252 252 252 257 263 270 277
259 256 255 254 254 254 255 256 254 255 257 255 253 256 260 258 262 260 257 259 260 258 261 264 265 264 263 261 262 261 261 264 261 262 259 253 252 252 254 258 261 267 272
261 259 257 255 254 254 255 254 253 253 255 254 254 253 255 259 259 260 256 257 257 258 260 262 262 261 260 260 259 257 257 260 257 254 254 252 254 255 258 259 261 264 268
261 259 259 256 254 252 253 253 253 253 253 253 254 254 256 258 258 262 259 258 260 258 258 258 259 260 258 256 256 253 255 258 251 251 251 253 255 257 259 259 260 263 266
265 265 263 261 258 255 253 253 253 253 253 253 254 255 255 256 258 260 261 260 260 258 255 256 256 258 259 256 251 250 251 252 249 249 250 253 257 257 258 260 262 262 264
270 268 267 264 260 256 254 256 253 252 253 254 255 255 254 256 258 259 259 258 258 257 255 255 256 258 257 254 251 248 247 248 247 248 249 253 255 255 258 260 263 262 262
270 270 271 272 261 254 256 257 256 254 254 254 254 255 255 255 255 257 256 257 257 257 255 254 255 257 256 252 250 248 246 246 245 247 248 251 252 254 256 260 262 262 260
275 271 271 271 266 258 258 260 257 253 255 255 255 253 255 254 255 256 258 257 256 255 254 254 254 255 254 249 247 246 245 244 245 247 249 249 249 253 254 256 259 259 259
281 279 278 274 268 264 262 260 258 253 253 254 254 254 255 256 255 256 256 257 257 256 255 254 254 254 252 248 246 245 245 244 244 246 248 248 251 252 250 253 256 257 257
300 295 283 296 269 272 266 265 260 255 248 250 253 257 255 260 261 259 258 260 260 256 254 256 255 254 251 248 245 244 245 244 245 245 247 249 249 249 250 251 253 255 257